Regional Weather Roundup
Issued by NWS

Home | Current Version | Previous Version | Text Only | Print | Product List | Glossary Off
Versions: 1 2 3 4 5 6 7 8 9 10 11 12 13 14 15 16 17 18 19 20 21 22 23 24 25 26 27 28 29 30 31 32 33 34 35 36 37 38 39 40 41 42 43 44 45 46 47 48 49 50

914
ASUS43 KDTX 270501
RWRMI
MICHIGAN HOURLY REGIONAL WEATHER ROUNDUP
NATIONAL WEATHER SERVICE DETROIT/PONTIAC MI
100 AM EDT MON MAR 27 2017

NOTE: "FAIR" INDICATES FEW OR NO CLOUDS BELOW 12,000 FEET WITH NO
SIGNIFICANT WEATHER AND/OR OBSTRUCTION TO VISIBILITY.

MIZ047>049-052>055-059>063-066>070-074>076-081>083-270600-
SOUTHEAST LOWER MICHIGAN

CITY           SKY/WX    TMP DP  RH WIND       PRES   REMARKS
ADRIAN         CLOUDY    51  51 100 SW9       29.89S
ALMA           FOG       45  45 100 SE3       29.85S VSB 1/2
ANN ARBOR      CLOUDY    49  49 100 S6        29.87F FOG
BAD AXE        FOG       47  47 100 S7        29.85F VSB 1/2
CARO           CLOUDY    49  49 100 S3        29.84F FOG
DETROIT CITY   CLOUDY    48  48 100 S7        29.88F FOG
DETROIT        CLOUDY    50  49  96 S7        29.89S FOG
FLINT          CLOUDY    50  49  96 S6        29.85F FOG
GROSSE ILE     FOG       44  43  98 S5        29.88S VSB 3/4
HILLSDALE      CLOUDY    50  50 100 SW6       29.87F
HOWELL         CLOUDY    50  48  93 S6        29.86S FOG

CITY           SKY/WX    TMP DP  RH WIND       PRES   REMARKS
JACKSON        CLOUDY    51  50  96 SW7       29.87S
LAMBERTVILLE   CLOUDY    52  51  95 SW3       29.89S FOG
LANSING        CLOUDY    53  50  89 S7        29.86S FOG
LAPEER         LGT RAIN  49  48  99 CALM      29.86F
MASON          CLOUDY    51  51  99 CALM      29.86S FOG
MONROE         CLOUDY    48  48 100 S7        29.88S FOG
MT. CLEMENS    FOG       44  44 100 SE8       29.86F VSB 1
PONTIAC        FOG       48  47  96 S5        29.86S VSB 1/4
PORT HOPE        N/A     38  38 100 S3        29.83F
TRI CITIES     FOG       41  41 100 CALM      29.85F VSB 1/2
MIDLAND        FOG       42  42  98 CALM      29.84F VSB 3/4
TROY           FOG       48  46  95 CALM      29.89S VSB 1/4
SAGINAW HB     CLOUDY    45  43  93 CALM      29.84F FOG
$$
MIZ043>046-050>051-056>058-064>065-071>073-077>080-270600-
SOUTHWEST LOWER MICHIGAN

CITY           SKY/WX    TMP DP  RH WIND       PRES   REMARKS
BATTLE CREEK   CLOUDY    53  53 100 W8        29.88S FOG
BENTON HARBOR  CLOUDY    52  50  93 SW10      29.88S FOG
BIG RAPIDS     FOG       43  42  97 CALM      29.83S VSB 1/4
COLDWATER      CLOUDY    53  53 100 SW7       29.88S
FREMONT        FOG       47  47 100 CALM      29.83S VSB 1/4
HOLLAND        CLOUDY    46  44  93 SW7       29.87S
GRAND RAPIDS   CLOUDY    53  53 100 SW12      29.85S
KALAMAZOO      CLOUDY    54  50  86 SW9       29.88S
LUDINGTON      FOG       40  40 100 SW6       29.84S VSB 1/4
MARSHALL       CLOUDY    53  53  99 SW7       29.87S
MOUNT PLEASANT FOG       43  42  97 CALM      29.84S VSB 1/4
MUSKEGON       RAIN      44  43  96 W8        29.86R FOG
SOUTH HAVEN    CLOUDY    48  47  99 SW7       29.88S FOG
$$
MIZ016>042-270600-
NORTHERN LOWER MICHIGAN

CITY           SKY/WX    TMP DP  RH WIND       PRES   REMARKS
ALPENA         CLOUDY    37  37 100 CALM      29.84F FOG
BEAVER ISLAND  FOG       34  34 100 CALM      29.84F VSB 3/4
BELLAIRE       CLOUDY    40  39  97 CALM      29.83F FOG
CADILLAC       FOG       43  42  97 CALM      29.81F VSB 1/4
CHARLEVOIX     FOG       39  39 100 CALM      29.86S VSB 3/4
FRANKFORT      CLOUDY    44  42  92 CALM      29.83S FOG
GAYLORD        FOG       41  37  86 SW5       29.81F VSB 1/2
HARBOR SPRINGS CLOUDY    37  37 100 CALM      29.83F FOG
HOUGHTON LAKE  FOG       40  39  97 CALM      29.83S VSB 3/4
MANISTEE       LGT RAIN  45  45 100 CALM      29.83S VSB 3/4
OSCODA         FOG       39  38  97 CALM      29.84F VSB 1/2
PELLSTON       FOG       36  33  89 CALM      29.84F VSB 3/4
ROGERS CITY    FOG       36  35  96 CALM      29.84  VSB 1/2
TRAVERSE CITY  CLOUDY    43  42  97 CALM      29.82S FOG
$$
MIZ007>008-015-270600-
EASTERN UPPER MICHIGAN

CITY           SKY/WX    TMP DP  RH WIND       PRES   REMARKS
KINROSS        MIX PCPN N/A N/A N/A E5        29.85F
MACKINAC ISLAN FOG       33  33 100 E7        29.84S VSB 1/2 WCI  27
NEWBERRY       MIX PCPN  32  31  97 N3        29.85S
S. S. MARIE    LGT RAIN  35  33  92 CALM      29.86F FOG
MUNISING         N/A     34  34 100 CALM      29.86F
$$
MIZ004>006-011>014-085-270600-
CENTRAL UPPER MICHIGAN

CITY           SKY/WX    TMP DP  RH WIND       PRES   REMARKS
ESCANABA       LGT RAIN  35  35 100 NW3       29.87S
MENOMINEE        N/A    N/A N/A N/A MISG        N/A
$$
MIZ001>003-009>011-084-270600-
WESTERN UPPER MICHIGAN

CITY           SKY/WX    TMP DP  RH WIND       PRES   REMARKS
IRON MOUNTAIN  LGT RAIN  35  33  92 CALM      29.84F FOG
HOUGHTON       CLOUDY    34  31  88 N6        29.88S WCI  29
COPPER HARBOR    N/A     34  33  96 NE6       29.90S WCI  29
IRONWOOD       FOG       32  32 100 NW3       29.91S VSB 1/4
$$

ABBREVIATIONS USED IN REMARKS
   TC - TEMPERATURE IN CELSIUS
  WCI - WIND CHILL INDEX
   HX - HEAT INDEX
  VSB - VISIBILITY





USA.gov is the U.S. government's official web portal to all federal, state and local government web resources and services.